| time (UTC) | temp C | wind direction | speed KPH | gust KPH | rain 1hr cm | rain 24hr cm | rain mn cm | humidity % | barometer mb |
| 20260509222905 | 11 | 150 | 0.0 | 3.2 | 0.00 | 0.00 | 0.00 | 98 | 1007.7 |
| 20260509222401 | 11 | 195 | 0.0 | 1.6 | 0.00 | 0.00 | 0.00 | 98 | 1007.6 |
| 20260509221856 | 11 | 72 | 1.6 | 1.6 | 0.00 | 0.00 | 0.00 | 98 | 1007.6 |
| 20260509221353 | 11 | 140 | 0.0 | 1.6 | 0.00 | 0.00 | 0.00 | 98 | 1007.6 |
| 20260509220849 | 11 | 168 | 0.0 | 3.2 | 0.00 | 0.00 | 0.00 | 98 | 1008.1 |
| 20260509220345 | 11 | 154 | 0.0 | 3.2 | 0.00 | 0.00 | 0.00 | 98 | 1008.3 |
| 20260509215841 | 11 | 198 | 1.6 | 3.2 | 0.00 | 0.00 | 0.00 | 97 | 1008.5 |
| 20260509215338 | 11 | 143 | 1.6 | 3.2 | 0.00 | 0.00 | 0.00 | 97 | 1008.6 |
| 20260509214835 | 11 | 152 | 1.6 | 3.2 | 0.00 | 0.00 | 0.00 | 97 | 1009.0 |
| 20260509214332 | 11 | 148 | 0.0 | 1.6 | 0.00 | 0.00 | 0.00 | 97 | 1009.3 |
| 20260509213829 | 11 | 144 | 1.6 | 3.2 | 0.00 | 0.00 | 0.00 | 97 | 1009.3 |
| 20260509213324 | 11 | 230 | 0.0 | 3.2 | 0.00 | 0.00 | 0.00 | 98 | 1009.4 |
| 20260509212822 | 11 | 149 | 0.0 | 3.2 | 0.00 | 0.00 | 0.00 | 98 | 1009.4 |
| 20260509212320 | 11 | 229 | 0.0 | 3.2 | 0.00 | 0.00 | 0.00 | 98 | 1009.5 |
| 20260509211815 | 11 | 229 | 0.0 | 1.6 | 0.00 | 0.00 | 0.00 | 97 | 1009.5 |
| 20260509211311 | 11 | 139 | 3.2 | 4.8 | 0.00 | 0.00 | 0.00 | 98 | 1009.5 |
| 20260509210808 | 11 | 266 | 0.0 | 3.2 | 0.00 | 0.00 | 0.00 | 97 | 1009.8 |
| 20260509210306 | 11 | 148 | 1.6 | 3.2 | 0.00 | 0.00 | 0.00 | 97 | 1009.6 |
| 20260509205805 | 11 | 129 | 3.2 | 4.8 | 0.00 | 0.00 | 0.00 | 97 | 1010.0 |
| 20260509205300 | 11 | 118 | 0.0 | 3.2 | 0.00 | 0.00 | 0.00 | 97 | 1010.2 |
| 20260509204756 | 11 | 124 | 0.0 | 1.6 | 0.00 | 0.00 | 0.00 | 97 | 1010.0 |
| 20260509204253 | 11 | 174 | 0.0 | 3.2 | 0.00 | 0.00 | 0.00 | 97 | 1010.2 |
| 20260509203749 | 11 | 149 | 1.6 | 3.2 | 0.00 | 0.00 | 0.00 | 97 | 1010.3 |
| 20260509203247 | 12 | 192 | 1.6 | 3.2 | 0.00 | 0.00 | 0.00 | 97 | 1010.4 |
| 20260509202742 | 11 | 180 | 0.0 | 3.2 | 0.00 | 0.00 | 0.00 | 96 | 1010.4 |
| 20260509202238 | 12 | 174 | 0.0 | 1.6 | 0.00 | 0.00 | 0.00 | 95 | 1010.7 |
| 20260509201733 | 12 | 195 | 0.0 | 0.0 | 0.00 | 0.00 | 0.00 | 95 | 1010.6 |
| 20260509201230 | 12 | 213 | 0.0 | 3.2 | 0.00 | 0.00 | 0.00 | 95 | 1010.5 |
| 20260509200726 | 12 | 132 | 0.0 | 1.6 | 0.00 | 0.00 | 0.00 | 94 | 1010.8 |
| 20260509200221 | 13 | 156 | 0.0 | 3.2 | 0.00 | 0.00 | 0.00 | 93 | 1010.9 |
| 20260509195717 | 13 | 121 | 1.6 | 3.2 | 0.00 | 0.00 | 0.00 | 92 | 1010.8 |
| 20260509195213 | 13 | 121 | 3.2 | 3.2 | 0.00 | 0.00 | 0.00 | 91 | 1010.9 |
| 20260509194707 | 13 | 59 | 1.6 | 3.2 | 0.00 | 0.00 | 0.00 | 91 | 1010.8 |
| 20260509194204 | 13 | 128 | 3.2 | 3.2 | 0.00 | 0.00 | 0.00 | 91 | 1010.9 |
| 20260509193700 | 13 | 80 | 3.2 | 3.2 | 0.00 | 0.00 | 0.00 | 91 | 1011.0 |
| 20260509193155 | 13 | 87 | 4.8 | 4.8 | 0.00 | 0.00 | 0.00 | 93 | 1011.0 |
| 20260509192652 | 13 | 125 | 0.0 | 4.8 | 0.00 | 0.00 | 0.00 | 94 | 1011.2 |
| 20260509192147 | 13 | 96 | 3.2 | 4.8 | 0.00 | 0.00 | 0.00 | 96 | 1011.2 |
| 20260509191647 | 13 | 109 | 3.2 | 3.2 | 0.00 | 0.00 | 0.00 | 97 | 1011.2 |
| 20260509191144 | 13 | 72 | 0.0 | 4.8 | 0.00 | 0.00 | 0.00 | 97 | 1011.4 |
| 20260509190641 | 13 | 125 | 0.0 | 1.6 | 0.00 | 0.00 | 0.00 | 97 | 1011.4 |
| 20260509190138 | 13 | 90 | 1.6 | 3.2 | 0.00 | 0.00 | 0.00 | 97 | 1011.4 |
| 20260509185636 | 13 | 70 | 1.6 | 4.8 | 0.00 | 0.00 | 0.00 | 97 | 1011.6 |
| 20260509185131 | 13 | 112 | 3.2 | 4.8 | 0.00 | 0.00 | 0.00 | 97 | 1011.6 |
| 20260509184630 | 13 | 104 | 3.2 | 3.2 | 0.00 | 0.00 | 0.00 | 97 | 1011.7 |
| 20260509184126 | 13 | 135 | 1.6 | 4.8 | 0.00 | 0.00 | 0.00 | 97 | 1011.8 |
| 20260509183622 | 13 | 102 | 1.6 | 3.2 | 0.00 | 0.00 | 0.00 | 96 | 1011.8 |
| 20260509183118 | 13 | 154 | 1.6 | 3.2 | 0.00 | 0.00 | 0.00 | 96 | 1011.8 |
| 20260509182614 | 13 | 145 | 1.6 | 3.2 | 0.00 | 0.00 | 0.00 | 96 | 1011.7 |
| 20260509182111 | 13 | 182 | 0.0 | 3.2 | 0.00 | 0.00 | 0.00 | 95 | 1011.8 |
| 20260509181609 | 13 | 118 | 0.0 | 3.2 | 0.00 | 0.00 | 0.00 | 95 | 1012.1 |
| 20260509181106 | 13 | 144 | 1.6 | 3.2 | 0.00 | 0.00 | 0.00 | 95 | 1012.1 |
| 20260509180602 | 13 | 153 | 1.6 | 3.2 | 0.00 | 0.00 | 0.00 | 95 | 1012.3 |
| 20260509180100 | 13 | 139 | 0.0 | 3.2 | 0.00 | 0.00 | 0.00 | 95 | 1012.1 |
| 20260509175555 | 13 | 131 | 3.2 | 3.2 | 0.00 | 0.00 | 0.00 | 95 | 1012.0 |
| 20260509175052 | 13 | 115 | 1.6 | 4.8 | 0.00 | 0.00 | 0.00 | 94 | 1012.4 |
| 20260509174548 | 13 | 126 | 1.6 | 3.2 | 0.00 | 0.00 | 0.00 | 95 | 1012.2 |
| 20260509174043 | 13 | 153 | 1.6 | 1.6 | 0.00 | 0.00 | 0.00 | 94 | 1012.3 |
| 20260509173538 | 13 | 182 | 0.0 | 1.6 | 0.00 | 0.00 | 0.00 | 94 | 1012.3 |
| 20260509173035 | 13 | 72 | 0.0 | 0.0 | 0.00 | 0.00 | 0.00 | 93 | 1012.4 |
| 20260509172532 | 13 | 129 | 0.0 | 1.6 | 0.00 | 0.00 | 0.00 | 93 | 1012.3 |
| 20260509172027 | 13 | 185 | 0.0 | 0.0 | 0.00 | 0.00 | 0.00 | 92 | 1012.5 |
| 20260509171524 | 14 | 213 | 0.0 | 1.6 | 0.00 | 0.00 | 0.00 | 92 | 1012.5 |
| 20260509171020 | 14 | 125 | 0.0 | 0.0 | 0.00 | 0.00 | 0.00 | 91 | 1012.4 |
| 20260509170516 | 15 | 102 | 0.0 | 4.8 | 0.00 | 0.00 | 0.00 | 90 | 1012.4 |
| 20260509170012 | 15 | 92 | 0.0 | 3.2 | 0.00 | 0.00 | 0.00 | 90 | 1012.2 |
| 20260509165511 | 15 | 112 | 0.0 | 3.2 | 0.00 | 0.00 | 0.00 | 89 | 1012.2 |
| 20260509165006 | 15 | 90 | 1.6 | 3.2 | 0.00 | 0.00 | 0.00 | 88 | 1012.4 |
| 20260509164503 | 15 | 111 | 3.2 | 3.2 | 0.00 | 0.00 | 0.00 | 88 | 1012.1 |
| 20260509163958 | 15 | 43 | 0.0 | 1.6 | 0.00 | 0.00 | 0.00 | 88 | 1012.3 |
| 20260509163456 | 15 | 42 | 3.2 | 3.2 | 0.00 | 0.00 | 0.00 | 87 | 1012.5 |
| 20260509162955 | 15 | 72 | 0.0 | 3.2 | 0.00 | 0.00 | 0.00 | 86 | 1012.4 |
| 20260509162454 | 15 | 96 | 0.0 | 1.6 | 0.00 | 0.00 | 0.00 | 86 | 1012.4 |
| 20260509161950 | 15 | 72 | 0.0 | 1.6 | 0.00 | 0.00 | 0.00 | 85 | 1012.4 |
| 20260509161446 | 15 | 72 | 3.2 | 3.2 | 0.00 | 0.00 | 0.00 | 84 | 1012.2 |
| 20260509160942 | 15 | 82 | 3.2 | 3.2 | 0.00 | 0.00 | 0.00 | 84 | 1012.4 |
| 20260509160438 | 15 | 102 | 0.0 | 4.8 | 0.00 | 0.00 | 0.00 | 83 | 1012.3 |
| 20260509155933 | 15 | 87 | 3.2 | 4.8 | 0.00 | 0.00 | 0.00 | 83 | 1012.2 |
| 20260509155430 | 15 | 110 | 1.6 | 4.8 | 0.00 | 0.00 | 0.00 | 82 | 1012.3 |
| 20260509154926 | 16 | 123 | 3.2 | 4.8 | 0.00 | 0.00 | 0.00 | 82 | 1012.4 |
| 20260509154423 | 16 | 104 | 4.8 | 4.8 | 0.00 | 0.00 | 0.00 | 81 | 1012.3 |
| 20260509153920 | 16 | 78 | 3.2 | 3.2 | 0.00 | 0.00 | 0.00 | 80 | 1012.4 |
| 20260509153417 | 16 | 115 | 4.8 | 4.8 | 0.00 | 0.00 | 0.00 | 79 | 1012.4 |
| 20260509152914 | 16 | 79 | 3.2 | 4.8 | 0.00 | 0.00 | 0.00 | 77 | 1012.4 |
| 20260509152409 | 16 | 100 | 4.8 | 6.4 | 0.00 | 0.00 | 0.00 | 76 | 1012.3 |
| 20260509151907 | 17 | 88 | 3.2 | 6.4 | 0.00 | 0.00 | 0.00 | 73 | 1012.5 |
| 20260509151403 | 17 | 124 | 3.2 | 4.8 | 0.00 | 0.00 | 0.00 | 71 | 1012.3 |
| 20260509150901 | 17 | 118 | 6.4 | 8.0 | 0.00 | 0.00 | 0.00 | 70 | 1012.4 |
| 20260509150358 | 17 | 133 | 4.8 | 4.8 | 0.00 | 0.00 | 0.00 | 69 | 1012.2 |
| 20260509145856 | 18 | 102 | 9.7 | 9.7 | 0.00 | 0.00 | 0.00 | 67 | 1012.6 |
| 20260509145350 | 18 | 120 | 4.8 | 8.0 | 0.00 | 0.00 | 0.00 | 67 | 1012.2 |
| 20260509144847 | 18 | 129 | 4.8 | 6.4 | 0.00 | 0.00 | 0.00 | 67 | 1012.4 |
| 20260509144344 | 18 | 112 | 1.6 | 4.8 | 0.00 | 0.00 | 0.00 | 66 | 1012.4 |
| 20260509143841 | 18 | 103 | 4.8 | 9.7 | 0.00 | 0.00 | 0.00 | 64 | 1012.3 |
| 20260509143338 | 18 | 114 | 3.2 | 16.1 | 0.00 | 0.00 | 0.00 | 65 | 1012.3 |
| 20260509142834 | 18 | 143 | 3.2 | 9.7 | 0.00 | 0.00 | 0.00 | 64 | 1012.4 |
| 20260509142331 | 18 | 118 | 8.0 | 11.3 | 0.00 | 0.00 | 0.00 | 62 | 1012.4 |
| 20260509141826 | 18 | 112 | 8.0 | 11.3 | 0.00 | 0.00 | 0.00 | 63 | 1012.4 |
| 20260509141328 | 18 | 125 | 3.2 | 11.3 | 0.00 | 0.00 | 0.00 | 63 | 1012.5 |
| 20260509140820 | 19 | 135 | 3.2 | 9.7 | 0.00 | 0.00 | 0.00 | 63 | 1012.5 |
| 20260509140317 | 18 | 89 | 6.4 | 12.9 | 0.00 | 0.00 | 0.00 | 65 | 1012.4 |
| 20260509135815 | 18 | 133 | 3.2 | 14.5 | 0.00 | 0.00 | 0.00 | 67 | 1012.6 |
| 20260509135312 | 19 | 139 | 6.4 | 8.0 | 0.00 | 0.00 | 0.00 | 66 | 1012.5 |
| 20260509134809 | 19 | 106 | 6.4 | 11.3 | 0.00 | 0.00 | 0.00 | 65 | 1012.6 |
| 20260509134307 | 19 | 131 | 4.8 | 8.0 | 0.00 | 0.00 | 0.00 | 65 | 1012.7 |
| 20260509133804 | 20 | 132 | 4.8 | 11.3 | 0.00 | 0.00 | 0.00 | 65 | 1012.7 |
| 20260509133300 | 20 | 100 | 4.8 | 4.8 | 0.00 | 0.00 | 0.00 | 64 | 1012.5 |
| 20260509132759 | 20 | 161 | 1.6 | 8.0 | 0.00 | 0.00 | 0.00 | 64 | 1012.7 |
| 20260509132257 | 20 | 137 | 3.2 | 12.9 | 0.00 | 0.00 | 0.00 | 65 | 1012.9 |
| 20260509131753 | 20 | 170 | 6.4 | 8.0 | 0.00 | 0.00 | 0.00 | 64 | 1013.0 |
| 20260509131250 | 20 | 142 | 3.2 | 9.7 | 0.00 | 0.00 | 0.00 | 64 | 1012.9 |
| 20260509130747 | 20 | 163 | 4.8 | 6.4 | 0.00 | 0.00 | 0.00 | 65 | 1012.8 |
| 20260509130242 | 20 | 165 | 4.8 | 11.3 | 0.00 | 0.00 | 0.00 | 65 | 1012.8 |
| 20260509125739 | 20 | 130 | 8.0 | 12.9 | 0.00 | 0.00 | 0.00 | 65 | 1012.6 |
| 20260509125236 | 20 | 119 | 6.4 | 8.0 | 0.00 | 0.00 | 0.00 | 64 | 1012.8 |
| 20260509124732 | 20 | 148 | 0.0 | 6.4 | 0.00 | 0.00 | 0.00 | 64 | 1012.7 |
| 20260509124229 | 20 | 163 | 3.2 | 9.7 | 0.00 | 0.00 | 0.00 | 65 | 1012.9 |
| 20260509123727 | 20 | 135 | 6.4 | 9.7 | 0.00 | 0.00 | 0.00 | 64 | 1012.8 |
| 20260509123224 | 20 | 138 | 3.2 | 8.0 | 0.00 | 0.00 | 0.00 | 65 | 1012.8 |
| 20260509122720 | 20 | 167 | 8.0 | 11.3 | 0.00 | 0.00 | 0.00 | 66 | 1013.1 |
| 20260509122217 | 20 | 146 | 8.0 | 8.0 | 0.00 | 0.00 | 0.00 | 64 | 1012.9 |
| 20260509121713 | 20 | 142 | 4.8 | 8.0 | 0.00 | 0.00 | 0.00 | 67 | 1013.0 |
| 20260509121211 | 20 | 156 | 4.8 | 11.3 | 0.00 | 0.00 | 0.00 | 67 | 1013.0 |
| 20260509120709 | 20 | 161 | 6.4 | 12.9 | 0.00 | 0.00 | 0.00 | 67 | 1013.2 |
| 20260509120207 | 20 | 154 | 8.0 | 8.0 | 0.00 | 0.00 | 0.00 | 66 | 1013.2 |
| 20260509115704 | 20 | 166 | 8.0 | 11.3 | 0.00 | 0.00 | 0.00 | 64 | 1013.2 |
| 20260509115201 | 20 | 209 | 4.8 | 8.0 | 0.00 | 0.00 | 0.00 | 66 | 1013.1 |
| 20260509114700 | 20 | 149 | 9.7 | 12.9 | 0.00 | 0.00 | 0.00 | 65 | 1013.2 |
| 20260509114158 | 20 | 158 | 4.8 | 8.0 | 0.00 | 0.00 | 0.00 | 64 | 1013.5 |
| 20260509113656 | 20 | 172 | 3.2 | 9.7 | 0.00 | 0.00 | 0.00 | 65 | 1013.3 |
| 20260509113153 | 20 | 190 | 3.2 | 8.0 | 0.00 | 0.00 | 0.00 | 63 | 1013.3 |
| 20260509112650 | 20 | 160 | 4.8 | 6.4 | 0.00 | 0.00 | 0.00 | 62 | 1013.5 |
| 20260509112147 | 21 | 105 | 3.2 | 4.8 | 0.00 | 0.00 | 0.00 | 51 | 1013.5 |
| 20260509111644 | 21 | 116 | 3.2 | 4.8 | 0.00 | 0.00 | 0.00 | 52 | 1013.8 |
| 20260509111140 | 21 | 71 | 3.2 | 4.8 | 0.00 | 0.00 | 0.00 | 52 | 1013.7 |
| 20260509110638 | 21 | 102 | 3.2 | 3.2 | 0.00 | 0.00 | 0.00 | 52 | 1013.7 |
| 20260509110135 | 21 | 99 | 3.2 | 4.8 | 0.00 | 0.00 | 0.00 | 53 | 1014.0 |
| 20260509105633 | 21 | 343 | 3.2 | 4.8 | 0.00 | 0.00 | 0.00 | 52 | 1014.1 |
| 20260509105130 | 21 | 57 | 4.8 | 6.4 | 0.00 | 0.00 | 0.00 | 50 | 1014.1 |
| 20260509104627 | 21 | 207 | 0.0 | 4.8 | 0.00 | 0.00 | 0.00 | 53 | 1014.1 |
| 20260509104124 | 20 | 108 | 4.8 | 8.0 | 0.00 | 0.00 | 0.00 | 56 | 1014.3 |
| 20260509103622 | 20 | 118 | 6.4 | 8.0 | 0.00 | 0.00 | 0.00 | 55 | 1014.4 |
| 20260509103120 | 20 | 159 | 0.0 | 4.8 | 0.00 | 0.00 | 0.00 | 58 | 1014.4 |
| 20260509102617 | 20 | 217 | 6.4 | 8.0 | 0.00 | 0.00 | 0.00 | 55 | 1014.7 |
| 20260509102114 | 20 | 338 | 0.0 | 3.2 | 0.00 | 0.00 | 0.00 | 56 | 1014.7 |
| 20260509101610 | 20 | 83 | 0.0 | 6.4 | 0.00 | 0.00 | 0.00 | 58 | 1014.8 |
| 20260509101107 | 20 | 81 | 4.8 | 8.0 | 0.00 | 0.00 | 0.00 | 58 | 1014.8 |
| 20260509100604 | 20 | 339 | 4.8 | 6.4 | 0.00 | 0.00 | 0.00 | 56 | 1015.3 |
| 20260509095557 | 20 | 315 | 4.8 | 6.4 | 0.00 | 0.00 | 0.00 | 57 | 1015.2 |
| 20260509095055 | 20 | 319 | 6.4 | 8.0 | 0.00 | 0.00 | 0.00 | 57 | 1015.2 |
| 20260509094551 | 20 | 125 | 3.2 | 4.8 | 0.00 | 0.00 | 0.00 | 56 | 1015.4 |
| 20260509094049 | 20 | 1 | 4.8 | 11.3 | 0.00 | 0.00 | 0.00 | 59 | 1015.4 |
| 20260509093547 | 20 | 105 | 4.8 | 6.4 | 0.00 | 0.00 | 0.00 | 58 | 1015.6 |
| 20260509093044 | 20 | 47 | 4.8 | 4.8 | 0.00 | 0.00 | 0.00 | 58 | 1015.7 |
| 20260509092542 | 20 | 48 | 4.8 | 4.8 | 0.00 | 0.00 | 0.00 | 59 | 1015.7 |
| 20260509092041 | 19 | 25 | 3.2 | 6.4 | 0.00 | 0.00 | 0.00 | 62 | 1015.7 |
| 20260509091537 | 19 | 329 | 4.8 | 8.0 | 0.00 | 0.00 | 0.00 | 62 | 1015.8 |
| 20260509091034 | 20 | 26 | 3.2 | 4.8 | 0.00 | 0.00 | 0.00 | 61 | 1015.9 |
| 20260509090531 | 20 | 26 | 3.2 | 6.4 | 0.00 | 0.00 | 0.00 | 60 | 1016.1 |
| 20260509090029 | 20 | 341 | 6.4 | 6.4 | 0.00 | 0.00 | 0.00 | 59 | 1016.1 |
| 20260509085526 | 19 | 212 | 0.0 | 3.2 | 0.00 | 0.00 | 0.00 | 56 | 1016.3 |
| 20260509085022 | 19 | 23 | 3.2 | 4.8 | 0.00 | 0.00 | 0.00 | 58 | 1016.2 |
| 20260509084519 | 19 | 60 | 1.6 | 6.4 | 0.00 | 0.00 | 0.00 | 61 | 1016.3 |
| 20260509084016 | 19 | 278 | 4.8 | 4.8 | 0.00 | 0.00 | 0.00 | 59 | 1016.5 |
| 20260509083514 | 19 | 252 | 0.0 | 4.8 | 0.00 | 0.00 | 0.00 | 59 | 1016.5 |
| 20260509083010 | 19 | 236 | 4.8 | 4.8 | 0.00 | 0.00 | 0.00 | 61 | 1016.8 |
| 20260509082508 | 17 | 223 | 0.0 | 4.8 | 0.00 | 0.00 | 0.00 | 64 | 1016.7 |
| 20260509082004 | 18 | 32 | 1.6 | 4.8 | 0.00 | 0.00 | 0.00 | 63 | 1016.8 |
| 20260509081502 | 19 | 37 | 4.8 | 4.8 | 0.00 | 0.00 | 0.00 | 62 | 1016.8 |
| 20260509080958 | 18 | 91 | 3.2 | 4.8 | 0.00 | 0.00 | 0.00 | 62 | 1016.9 |
| 20260509080456 | 18 | 344 | 0.0 | 4.8 | 0.00 | 0.00 | 0.00 | 62 | 1016.9 |
| 20260509075954 | 18 | 240 | 1.6 | 4.8 | 0.00 | 0.00 | 0.00 | 61 | 1016.8 |
| 20260509075451 | 17 | 138 | 0.0 | 6.4 | 0.00 | 0.00 | 0.00 | 64 | 1017.1 |
| 20260509074949 | 17 | 235 | 1.6 | 4.8 | 0.00 | 0.00 | 0.00 | 65 | 1017.0 |
| 20260509074446 | 17 | 177 | 1.6 | 6.4 | 0.00 | 0.00 | 0.00 | 68 | 1017.1 |
| 20260509073942 | 16 | 272 | 3.2 | 6.4 | 0.00 | 0.00 | 0.00 | 69 | 1017.4 |
| 20260509073439 | 16 | 346 | 1.6 | 4.8 | 0.00 | 0.00 | 0.00 | 68 | 1017.3 |
| 20260509072935 | 16 | 295 | 4.8 | 8.0 | 0.00 | 0.00 | 0.00 | 68 | 1017.4 |
| 20260509072432 | 16 | 272 | 1.6 | 9.7 | 0.00 | 0.00 | 0.00 | 70 | 1017.3 |
| 20260509071929 | 16 | 334 | 4.8 | 4.8 | 0.00 | 0.00 | 0.00 | 74 | 1017.3 |
| 20260509071426 | 15 | 313 | 1.6 | 6.4 | 0.00 | 0.00 | 0.00 | 75 | 1017.3 |
| 20260509070923 | 15 | 332 | 3.2 | 6.4 | 0.00 | 0.00 | 0.00 | 75 | 1017.4 |
| 20260509070420 | 15 | 328 | 4.8 | 6.4 | 0.00 | 0.00 | 0.00 | 76 | 1017.4 |
| 20260509065915 | 15 | 345 | 3.2 | 8.0 | 0.00 | 0.00 | 0.00 | 75 | 1017.5 |
| 20260509065412 | 15 | 237 | 0.0 | 6.4 | 0.00 | 0.00 | 0.00 | 74 | 1017.5 |
| 20260509064908 | 15 | 343 | 3.2 | 3.2 | 0.00 | 0.00 | 0.00 | 75 | 1017.7 |
| 20260509064406 | 15 | 226 | 6.4 | 8.0 | 0.00 | 0.00 | 0.00 | 75 | 1017.6 |
| 20260509063904 | 15 | 55 | 0.0 | 4.8 | 0.00 | 0.00 | 0.00 | 75 | 1017.6 |
| 20260509063359 | 15 | 272 | 1.6 | 3.2 | 0.00 | 0.00 | 0.00 | 76 | 1017.5 |
| 20260509062856 | 15 | 250 | 1.6 | 8.0 | 0.00 | 0.00 | 0.00 | 76 | 1017.4 |
| 20260509062353 | 14 | 235 | 4.8 | 8.0 | 0.00 | 0.00 | 0.00 | 76 | 1017.6 |
| 20260509061851 | 14 | 302 | 1.6 | 4.8 | 0.00 | 0.00 | 0.00 | 78 | 1017.6 |
| 20260509061349 | 13 | 238 | 4.8 | 11.3 | 0.00 | 0.00 | 0.00 | 79 | 1017.4 |
| 20260509060845 | 13 | 235 | 4.8 | 6.4 | 0.00 | 0.00 | 0.00 | 80 | 1017.4 |
| 20260509060342 | 13 | 228 | 4.8 | 8.0 | 0.00 | 0.00 | 0.00 | 81 | 1017.6 |
| 20260509055837 | 12 | 239 | 3.2 | 6.4 | 0.00 | 0.00 | 0.00 | 80 | 1017.7 |
| 20260509055333 | 12 | 288 | 8.0 | 8.0 | 0.00 | 0.00 | 0.00 | 81 | 1017.9 |
| 20260509054831 | 12 | 267 | 4.8 | 6.4 | 0.00 | 0.00 | 0.00 | 81 | 1017.7 |
| 20260509054327 | 12 | 21 | 0.0 | 9.7 | 0.00 | 0.00 | 0.00 | 82 | 1017.8 |
| 20260509053826 | 11 | 256 | 4.8 | 8.0 | 0.00 | 0.00 | 0.00 | 84 | 1017.6 |
| 20260509053322 | 11 | 237 | 3.2 | 6.4 | 0.00 | 0.00 | 0.00 | 86 | 1017.5 |
| 20260509052821 | 10 | 230 | 3.2 | 6.4 | 0.00 | 0.00 | 0.00 | 88 | 1017.5 |
| 20260509052318 | 10 | 245 | 1.6 | 4.8 | 0.00 | 0.00 | 0.00 | 90 | 1017.6 |
| 20260509051815 | 9 | 217 | 1.6 | 4.8 | 0.00 | 0.00 | 0.00 | 92 | 1017.4 |
| 20260509051314 | 8 | 222 | 3.2 | 4.8 | 0.00 | 0.00 | 0.00 | 95 | 1017.5 |
| 20260509050810 | 8 | 209 | 0.0 | 3.2 | 0.00 | 0.00 | 0.00 | 95 | 1017.6 |
| 20260509050306 | 8 | 149 | 0.0 | 1.6 | 0.00 | 0.00 | 0.00 | 95 | 1017.7 |
| 20260509045804 | 8 | 186 | 0.0 | 3.2 | 0.00 | 0.00 | 0.00 | 95 | 1017.6 |
| 20260509045300 | 8 | 232 | 0.0 | 3.2 | 0.00 | 0.00 | 0.00 | 94 | 1017.7 |
| 20260509044758 | 8 | 238 | 1.6 | 4.8 | 0.00 | 0.00 | 0.00 | 94 | 1017.6 |
| 20260509044255 | 9 | 277 | 1.6 | 4.8 | 0.00 | 0.00 | 0.00 | 94 | 1017.6 |
| 20260509043751 | 9 | 0 | 0.0 | 3.2 | 0.00 | 0.00 | 0.00 | 93 | 1017.6 |
| 20260509043247 | 9 | 245 | 3.2 | 3.2 | 0.00 | 0.00 | 0.00 | 93 | 1017.6 |
| 20260509042743 | 9 | 270 | 0.0 | 3.2 | 0.00 | 0.00 | 0.00 | 93 | 1017.6 |
| 20260509042240 | 9 | 254 | 3.2 | 4.8 | 0.00 | 0.00 | 0.00 | 94 | 1017.7 |
| 20260509041737 | 9 | 252 | 0.0 | 4.8 | 0.00 | 0.00 | 0.00 | 95 | 1017.8 |
| 20260509041234 | 9 | 286 | 0.0 | 3.2 | 0.00 | 0.00 | 0.00 | 94 | 1017.8 |
| 20260509040732 | 9 | 277 | 1.6 | 4.8 | 0.00 | 0.00 | 0.00 | 94 | 1017.6 |
| 20260509040229 | 9 | 346 | 0.0 | 6.4 | 0.00 | 0.00 | 0.00 | 94 | 1017.7 |
| 20260509035726 | 9 | 288 | 3.2 | 4.8 | 0.00 | 0.00 | 0.00 | 94 | 1017.6 |
| 20260509035223 | 9 | 260 | 3.2 | 4.8 | 0.00 | 0.00 | 0.00 | 94 | 1017.7 |
| 20260509034720 | 9 | 248 | 3.2 | 4.8 | 0.00 | 0.00 | 0.00 | 94 | 1017.7 |
| 20260509034217 | 9 | 323 | 3.2 | 4.8 | 0.00 | 0.00 | 0.00 | 94 | 1017.7 |
| 20260509033714 | 9 | 298 | 1.6 | 4.8 | 0.00 | 0.00 | 0.00 | 94 | 1017.5 |
| 20260509033211 | 9 | 208 | 0.0 | 4.8 | 0.00 | 0.00 | 0.00 | 94 | 1017.8 |
| 20260509032708 | 9 | 263 | 1.6 | 3.2 | 0.00 | 0.00 | 0.00 | 94 | 1017.9 |
| 20260509032205 | 10 | 221 | 0.0 | 6.4 | 0.00 | 0.00 | 0.00 | 93 | 1017.9 |
| 20260509031703 | 10 | 311 | 3.2 | 6.4 | 0.00 | 0.00 | 0.00 | 94 | 1017.7 |
| 20260509031200 | 10 | 359 | 1.6 | 3.2 | 0.00 | 0.00 | 0.00 | 94 | 1017.9 |
| 20260509030658 | 10 | 311 | 3.2 | 4.8 | 0.00 | 0.00 | 0.00 | 94 | 1018.0 |
| 20260509030155 | 10 | 240 | 3.2 | 3.2 | 0.00 | 0.00 | 0.00 | 93 | 1018.0 |
| 20260509025651 | 10 | 335 | 0.0 | 3.2 | 0.00 | 0.00 | 0.00 | 93 | 1017.8 |
| 20260509025147 | 10 | 72 | 0.0 | 3.2 | 0.00 | 0.00 | 0.00 | 92 | 1017.7 |
| 20260509024642 | 10 | 331 | 1.6 | 4.8 | 0.00 | 0.00 | 0.00 | 91 | 1017.8 |
| 20260509024139 | 10 | 349 | 1.6 | 3.2 | 0.00 | 0.00 | 0.00 | 89 | 1017.7 |
| 20260509023637 | 11 | 264 | 4.8 | 4.8 | 0.00 | 0.00 | 0.00 | 88 | 1018.0 |
| 20260509023133 | 11 | 243 | 1.6 | 4.8 | 0.00 | 0.00 | 0.00 | 88 | 1017.9 |
| 20260509022629 | 11 | 255 | 4.8 | 8.0 | 0.00 | 0.00 | 0.00 | 89 | 1017.8 |
| 20260509022128 | 10 | 255 | 4.8 | 8.0 | 0.00 | 0.00 | 0.00 | 90 | 1017.9 |
| 20260509021624 | 10 | 249 | 3.2 | 8.0 | 0.00 | 0.00 | 0.00 | 91 | 1017.9 |
| 20260509021121 | 10 | 144 | 0.0 | 3.2 | 0.00 | 0.00 | 0.00 | 92 | 1017.9 |
| 20260509020620 | 10 | 221 | 0.0 | 4.8 | 0.00 | 0.00 | 0.00 | 92 | 1018.0 |
| 20260509020116 | 10 | 262 | 3.2 | 4.8 | 0.00 | 0.00 | 0.00 | 93 | 1018.0 |
| 20260509015615 | 10 | 250 | 4.8 | 4.8 | 0.00 | 0.00 | 0.00 | 94 | 1018.0 |
| 20260509015112 | 10 | 252 | 0.0 | 6.4 | 0.00 | 0.00 | 0.00 | 94 | 1018.2 |
| 20260509014608 | 10 | 294 | 1.6 | 4.8 | 0.00 | 0.00 | 0.00 | 94 | 1018.2 |
| 20260509014105 | 10 | 263 | 3.2 | 4.8 | 0.00 | 0.00 | 0.00 | 95 | 1018.3 |
| 20260509013602 | 10 | 277 | 3.2 | 4.8 | 0.00 | 0.00 | 0.00 | 95 | 1018.1 |
| 20260509013057 | 10 | 254 | 3.2 | 3.2 | 0.00 | 0.00 | 0.00 | 95 | 1018.2 |
| 20260509012555 | 10 | 46 | 0.0 | 3.2 | 0.00 | 0.00 | 0.00 | 94 | 1018.4 |
| 20260509012051 | 10 | 242 | 0.0 | 6.4 | 0.00 | 0.00 | 0.00 | 94 | 1018.4 |
| 20260509011549 | 10 | 246 | 0.0 | 4.8 | 0.00 | 0.00 | 0.00 | 93 | 1018.3 |
| 20260509011046 | 10 | 247 | 3.2 | 4.8 | 0.00 | 0.00 | 0.00 | 93 | 1018.3 |
| 20260509010544 | 11 | 238 | 3.2 | 6.4 | 0.00 | 0.00 | 0.00 | 92 | 1018.4 |
| 20260509010040 | 11 | 255 | 1.6 | 8.0 | 0.00 | 0.00 | 0.00 | 91 | 1018.7 |
| 20260509005538 | 11 | 248 | 1.6 | 6.4 | 0.00 | 0.00 | 0.00 | 92 | 1018.7 |
| 20260509005038 | 11 | 221 | 3.2 | 6.4 | 0.00 | 0.00 | 0.00 | 92 | 1018.6 |
| 20260509004535 | 11 | 228 | 6.4 | 6.4 | 0.00 | 0.00 | 0.00 | 92 | 1018.6 |
| 20260509004032 | 11 | 211 | 1.6 | 8.0 | 0.00 | 0.00 | 0.00 | 91 | 1018.8 |
| 20260509003531 | 11 | 220 | 6.4 | 6.4 | 0.00 | 0.00 | 0.00 | 91 | 1018.7 |
| 20260509003028 | 11 | 245 | 4.8 | 11.3 | 0.00 | 0.00 | 0.00 | 90 | 1018.7 |
| 20260509002525 | 11 | 200 | 6.4 | 8.0 | 0.00 | 0.00 | 0.00 | 90 | 1018.7 |
| 20260509002022 | 11 | 225 | 8.0 | 11.3 | 0.00 | 0.00 | 0.00 | 90 | 1019.0 |
| 20260509001520 | 11 | 260 | 8.0 | 9.7 | 0.00 | 0.00 | 0.00 | 91 | 1019.0 |
| 20260509001015 | 11 | 237 | 8.0 | 8.0 | 0.00 | 0.00 | 0.00 | 90 | 1019.0 |
| 20260509000514 | 11 | 213 | 4.8 | 14.5 | 0.00 | 0.00 | 0.00 | 90 | 1019.0 |
| 20260509000009 | 11 | 248 | 4.8 | 11.3 | 0.00 | 0.00 | 0.00 | 90 | 1019.1 |
| 20260508235508 | 11 | 225 | 11.3 | 12.9 | 0.00 | 0.00 | 0.00 | 90 | 1019.0 |
| 20260508235003 | 11 | 278 | 11.3 | 14.5 | 0.00 | 0.00 | 0.00 | 90 | 1019.2 |
| 20260508234501 | 11 | 234 | 6.4 | 12.9 | 0.00 | 0.00 | 0.00 | 90 | 1019.1 |
| 20260508233958 | 11 | 247 | 4.8 | 11.3 | 0.00 | 0.00 | 0.00 | 90 | 1019.0 |
| 20260508233458 | 11 | 265 | 6.4 | 11.3 | 0.00 | 0.00 | 0.00 | 91 | 1018.9 |
| 20260508232954 | 11 | 247 | 1.6 | 4.8 | 0.00 | 0.00 | 0.00 | 90 | 1019.1 |
| 20260508232451 | 11 | 247 | 4.8 | 9.7 | 0.00 | 0.00 | 0.00 | 90 | 1018.8 |
| 20260508231948 | 11 | 265 | 4.8 | 8.0 | 0.00 | 0.00 | 0.00 | 90 | 1019.1 |
| 20260508231445 | 11 | 270 | 6.4 | 8.0 | 0.00 | 0.00 | 0.00 | 90 | 1019.0 |
| 20260508230942 | 11 | 255 | 9.7 | 9.7 | 0.00 | 0.00 | 0.00 | 90 | 1018.9 |
| 20260508230439 | 11 | 259 | 4.8 | 8.0 | 0.00 | 0.00 | 0.00 | 90 | 1018.9 |
| 20260508225936 | 11 | 271 | 3.2 | 11.3 | 0.00 | 0.00 | 0.00 | 90 | 1018.9 |
| 20260508225433 | 11 | 228 | 4.8 | 9.7 | 0.00 | 0.00 | 0.00 | 90 | 1019.1 |
| 20260508224930 | 11 | 237 | 8.0 | 8.0 | 0.00 | 0.00 | 0.00 | 90 | 1019.2 |
| 20260508224428 | 11 | 225 | 8.0 | 11.3 | 0.00 | 0.00 | 0.00 | 90 | 1019.0 |
| 20260508223925 | 12 | 239 | 4.8 | 12.9 | 0.00 | 0.00 | 0.00 | 89 | 1019.0 |
| 20260508223423 | 12 | 242 | 12.9 | 12.9 | 0.00 | 0.00 | 0.00 | 90 | 1019.1 |